Flight Track Log - Related Links

Times and Time Zones

All times are in EDT time to prevent confusion due to time zone crossing. See the DAL3688 flight status page for this flight to view local times or setup timezone preferences in your user account.

Time Position Orientation Groundspeed Altitude Reporting Facility
EDT Latitude Longitude Course Direction KTS MPH feet Rate Location/Type
Wed 10:38:08 AM 42.2283 -83.3367 94° East 141 162 1,400  Level FAA TRACON SMA TRACON (SMA)
Wed 10:38:27 AM 42.2406 -83.3278 28° Northeast 142 163 2,400 2,154 Climbing FAA TRACON SMA TRACON (SMA)
Wed 10:38:47 AM 42.2533 -83.3189 27° Northeast 185 213 2,800 2,100 Climbing FAA TRACON SMA TRACON (SMA)
Wed 10:39:07 AM 42.2706 -83.3072 27° Northeast 196 226 3,800 2,400 Climbing FAA TRACON SMA TRACON (SMA)
Wed 10:39:27 AM 42.2847 -83.2972 28° Northeast 215 247 4,400 2,049 Climbing FAA TRACON SMA TRACON (SMA)
Wed 10:39:48 AM 42.3069 -83.2786 32° Northeast 252 290 5,200 2,100 Climbing FAA TRACON SMA TRACON (SMA)
Wed 10:40:00 AM 42.2167 -82.8828 90° East  Level FlightAware Approximate
Wed 10:40:07 AM 42.3225 -83.2575 45° Northeast 274 315 5,800  Level FAA TRACON SMA TRACON (SMA)
Wed 10:40:27 AM 42.3311 -83.2239 71° East 278 320 6,900 3,300 Climbing FAA TRACON SMA TRACON (SMA)
Wed 10:40:47 AM 42.3281 -83.1867 96° East 284 327 8,000 2,550 Climbing FAA TRACON SMA TRACON (SMA)
Wed 10:41:00 AM 42.2167 -82.7258 90° East  Level FlightAware Approximate
Wed 10:41:07 AM 42.3233 -83.1536 101° East 286 329 8,600  Level FAA TRACON SMA TRACON (SMA)
Wed 10:41:27 AM 42.3181 -83.1183 101° East 311 358 9,400 2,100 Climbing FAA TRACON SMA TRACON (SMA)
Wed 10:41:47 AM 42.3111 -83.0725 102° East 331 381 10,000 900 Climbing FAA TRACON SMA TRACON (SMA)
Wed 10:42:00 AM 42.2167 -82.5688 90° East  Level FlightAware Approximate
Wed 10:42:07 AM 42.2978 -83.0378 117° Southeast 353 406 10,000  Level FAA TRACON SMA TRACON (SMA)
Wed 10:42:28 AM 42.2744 -83.0142 143° Southeast 346 398 10,200 1,610 Climbing FAA TRACON SMA TRACON (SMA)
Wed 10:42:48 AM 42.2433 -82.9872 147° Southeast 344 396 11,100 2,700 Climbing FAA TRACON SMA TRACON (SMA)
Wed 10:43:00 AM 42.2155 -82.4119 94° East  Level FlightAware Approximate
Wed 10:43:08 AM 42.2181 -82.9667 149° Southeast 344 396 12,000  Level FAA TRACON SMA TRACON (SMA)
Wed 10:43:28 AM 42.1869 -82.9397 147° Southeast 348 400 12,800 1,538 Climbing FAA TRACON SMA TRACON (SMA)
Wed 10:43:47 AM 42.1672 -82.9064 129° Southeast 373 429 13,000 462 Climbing FAA TRACON SMA TRACON (SMA)
Wed 10:44:07 AM 42.1569 -82.8661 109° East 367 422 13,100 1,279 Climbing FAA TRACON SMA TRACON (SMA)
Wed 10:44:48 AM 42.1678 -82.7728 81° East 364 419 14,300 1,770 Climbing FAA TRACON SMA TRACON (SMA)
Wed 10:45:08 AM 42.1747 -82.7311 77° East 368 423 14,900 1,950 Climbing FAA TRACON SMA TRACON (SMA)
Wed 10:45:28 AM 42.1842 -82.6783 76° East 375 432 15,600 1,950 Climbing FAA TRACON SMA TRACON (SMA)
Wed 10:45:48 AM 42.1917 -82.6356 77° East 379 436 16,200 1,800 Climbing FAA TRACON SMA TRACON (SMA)
Wed 10:46:08 AM 42.1992 -82.5919 77° East 382 440 16,800 1,950 Climbing FAA TRACON SMA TRACON (SMA)
Wed 10:46:28 AM 42.2089 -82.5375 76° East 388 447 17,500 1,350 Climbing FAA TRACON SMA TRACON (SMA)
Wed 10:46:48 AM 42.2167 -82.4936 77° East 389 448 17,700 1,077 Climbing FAA TRACON SMA TRACON (SMA)
Wed 10:47:07 AM 42.2222 -82.4481 81° East 402 463 18,200 1,538 Climbing FAA TRACON SMA TRACON (SMA)
Wed 10:47:27 AM 42.2206 -82.4017 93° East 405 466 18,700 1,800 Climbing FAA TRACON SMA TRACON (SMA)
Wed 10:47:47 AM 42.2178 -82.3431 94° East 407 468 19,400 1,500 Climbing FAA TRACON SMA TRACON (SMA)
Wed 10:48:07 AM 42.2144 -82.2961 95° East 409 471 19,700 1,350 Climbing FAA TRACON SMA TRACON (SMA)
Wed 10:48:27 AM 42.2114 -82.2397 94° East 414 476 20,300 1,500 Climbing FAA TRACON SMA TRACON (SMA)
Wed 10:48:47 AM 42.2078 -82.1917 96° East 416 479 20,700 750 Climbing FAA TRACON SMA TRACON (SMA)
Wed 10:49:07 AM 42.2064 -82.1675 94° East 418 481 20,800 146 Climbing FAA TRACON SMA TRACON (SMA)
Wed 10:49:28 AM 42.2064 -82.1675 180° South 418 481 20,800 1,059 Level FAA TRACON SMA TRACON (SMA)
Wed 10:50:15 AM 42.1892 -81.9703 97° East 428 493 22,000 1,290 Climbing Cleveland Center
Wed 10:51:15 AM 42.1114 -81.8483 131° Southeast 426 490 23,100 1,100 Climbing Cleveland Center
Wed 10:52:15 AM 42.0186 -81.7403 139° Southeast 426 490 24,200 950 Climbing Cleveland Center
Wed 10:53:15 AM 41.9261 -81.6297 138° Southeast 441 507 25,000 900 Climbing Cleveland Center
Wed 10:54:15 AM 41.8289 -81.5194 140° Southeast 450 518 26,000 850 Climbing Cleveland Center
Wed 10:55:15 AM 41.7236 -81.3983 139° Southeast 455 524 26,700 700 Climbing Cleveland Center
Wed 10:56:15 AM 41.6242 -81.2886 140° Southeast 455 524 27,400 750 Climbing Cleveland Center
Wed 10:57:15 AM 41.5250 -81.1739 139° Southeast 460 529 28,200 750 Climbing Cleveland Center
Wed 10:58:15 AM 41.4589 -81.0181 119° Southeast 475 547 28,900 400 Climbing Cleveland Center
Wed 10:59:15 AM 41.3969 -80.8544 117° Southeast 488 562 29,000 50 Climbing Cleveland Center
Wed 11:00:15 AM 41.3325 -80.6883 117° Southeast 498 573 29,000  Level Cleveland Center
Wed 11:01:15 AM 41.2719 -80.5361 118° Southeast 503 579 29,000  Level Cleveland Center
Wed 11:02:15 AM 41.2072 -80.3706 117° Southeast 503 579 29,000 -50 Level Cleveland Center
Wed 11:03:15 AM 41.1400 -80.2000 118° Southeast 510 587 28,900 -800 Descending Cleveland Center
Wed 11:04:15 AM 41.0686 -80.0242 118° Southeast 510 587 27,400 -1,500 Descending Cleveland Center
Wed 11:05:15 AM 41.0072 -79.8733 118° Southeast 483 556 25,900 -1,500 Descending Cleveland Center
Wed 11:06:15 AM 40.9500 -79.7308 118° Southeast 459 528 24,400 -1,300 Descending Cleveland Center
Wed 11:07:15 AM 40.8947 -79.5942 118° Southeast 439 505 23,300 -1,300 Descending Cleveland Center
Wed 11:08:15 AM 40.8392 -79.4578 118° Southeast 426 490 21,800 -1,150 Descending Cleveland Center
Wed 11:09:15 AM 40.7856 -79.3244 118° Southeast 410 472 21,000 -400 Descending Cleveland Center
Wed 11:10:15 AM 40.7319 -79.1939 118° Southeast 410 472 21,000  Level Cleveland Center
Wed 11:11:15 AM 40.6761 -79.0608 119° Southeast 410 472 21,000  Level Cleveland Center
Wed 11:12:15 AM 40.6181 -78.9256 119° Southeast 415 478 21,000 -500 Level Cleveland Center
Wed 11:13:15 AM 40.5594 -78.7847 119° Southeast 415 478 20,000 -1,250 Descending Cleveland Center
Wed 11:14:15 AM 40.5322 -78.6408 104° East 415 478 18,500 -1,350 Descending Cleveland Center
Wed 11:15:15 AM 40.5111 -78.5022 101° East 404 465 17,300 -1,243 Descending Cleveland Center
Wed 11:16:35 AM 40.4881 -78.3364 100° East 384 442 15,600 -1,362 Descending New York Center
Wed 11:17:36 AM 40.4717 -78.2036 99° East 378 435 14,100 -1,488 Descending New York Center
Wed 11:18:36 AM 40.4506 -78.0703 102° East 373 429 12,600 -1,525 Descending New York Center
Wed 11:19:34 AM 40.4314 -77.9428 101° East 373 429 11,100 -807 Descending New York Center
Wed 11:20:35 AM 40.4139 -77.8156 100° East 362 417 11,000 -393 Descending New York Center
Wed 11:21:36 AM 40.3931 -77.6769 101° East 362 417 10,300 -857 Descending New York Center
Wed 11:22:34 AM 40.3761 -77.5744 102° East 340 391 9,300 -1,462 Descending New York Center
Wed 11:23:35 AM 40.3342 -77.4669 117° Southeast 305 351 7,400 -1,636 Descending New York Center
Wed 11:24:35 AM 40.3014 -77.3819 117° Southeast 296 341 6,000 -1,190 Descending New York Center
Wed 11:25:36 AM 40.2631 -77.2831 117° Southeast 291 335 5,000 -504 Descending New York Center
Wed 11:26:34 AM 40.2300 -77.2011 118° Southeast 284 327 5,000  Level New York Center
Wed 11:27:34 AM 40.1939 -77.1025 116° Southeast 273 314 5,000 -148 Level New York Center
Wed 11:28:36 AM 40.1647 -77.0239 116° Southeast 273 314 4,700 -950 Descending New York Center
Wed 11:29:34 AM 40.1258 -76.9281 118° Southeast 273 314 3,100 -864 Descending New York Center
Wed 11:30:34 AM 40.0964 -76.8550 118° Southeast 267 307 3,000 -50 Descending New York Center
Wed 11:31:35 AM 40.0672 -76.7708 114° Southeast 252 290 3,000  Level New York Center
Wed 11:32:36 AM 40.0650 -76.6919 92° East 214 246 3,000  Level New York Center
Wed 11:33:36 AM 40.0728 -76.6194 82° East 214 246 3,000  Level New York Center
Wed 11:34:35 AM 40.0864 -76.5556 74° East 209 241 3,000 -202 Level New York Center
Wed 11:35:35 AM 40.1394 -76.6197 317° Northwest 102 117 2,600 -400 Descending New York Center

Login

Don't have an account? Register now (free) for customized features, flight alerts, and more!